Regional Weather Roundup
Issued by NWS

Home | Current Version | Previous Version | Text Only | Print | Product List | Glossary Off
Versions: 1 2 3 4 5 6 7 8 9 10 11 12 13 14 15 16 17 18 19 20 21 22 23 24 25 26 27 28 29 30 31 32 33 34 35 36 37 38 39 40 41 42 43 44 45 46 47 48 49 50

000
ASUS45 KBOI 011910
RWRID
WEATHER ROUNDUP FOR IDAHO
NATIONAL WEATHER SERVICE BOISE ID
100 PM MDT WED APR 01 2015

NOTE: "FAIR" INDICATES FEW OR NO CLOUDS BELOW 12000 FEET
WITH NO SIGNIFICANT WEATHER AND/OR OBSTRUCTIONS TO VISIBILITY

IDZ012-014-012000-
SOUTHWEST IDAHO


CITY           SKY/WX    TMP DP  RH WIND       PRES   REMARKS
BOISE          SUNNY     47  26  44 NW12G18   30.19F
CALDWELL       MOSUNNY   48  21  34 NW13G20   30.21F
MOUNTAIN HOME  SUNNY     48  20  32 NW14G22   30.17F
$$

IDZ016-017-012000-
SOUTHCENTRAL IDAHO


CITY           SKY/WX    TMP DP  RH WIND       PRES   REMARKS
BURLEY         LGT RAIN  46  22  38 W14G28    30.11F
JEROME         SUNNY     44  20  38 SW25G32   30.14F
TWIN FALLS     SUNNY     47  20  34 W18G26    30.14F
$$

IDZ019>023-012000-
SOUTHEAST IDAHO


CITY           SKY/WX    TMP DP  RH WIND       PRES   REMARKS
IDAHO FALLS    PTSUNNY   45  20  36 SW14G26   30.04F
POCATELLO      PTSUNNY   45  23  42 W24G39    30.09F
REXBURG        LGT SNOW  37  24  59 SW16G30   30.04S WCI  28
$$

IDZ006-010-011-018-031-032-012000-
CENTRAL IDAHO MOUNTAINS


CITY           SKY/WX    TMP DP  RH WIND       PRES   REMARKS
MCCALL         MOSUNNY   32  27  81 NE8       30.09F WCI  25
HAILEY         MOSUNNY   45  10  24 S6G20     30.03F
STANLEY          N/A     35  13  40 W9        30.06F WCI  28
SALMON         PTSUNNY   41  19  42 NW7       30.03F
CHALLIS        CLOUDY    39  19  44 SE9       30.03F WCI  33
$$

IDZ002-004-006-007-026-012000-
NORTHERN IDAHO


CITY           SKY/WX    TMP DP  RH WIND       PRES   REMARKS
LEWISTON       CLOUDY    51  30  44 NW15G22   30.17F
LOWELL           N/A     41  35  79 VRB3      30.21R
COEUR D`ALENE  MOSUNNY   46  30  53 SW10      30.12S
MULLAN PASS    CLOUDY    26  20  77 CALM      29.99F
$$


USA.gov is the U.S. government's official web portal to all federal, state and local government web resources and services.